Location: Unspecified
(44.0704°N, 88.6889°W)
Time: 16:01:36
(UTC+02:00)

Vanguard 1 - Visible Passes

Search period start: 14 October 2019 00:00
Search period end: 24 October 2019 00:00
Orbit: 653 x 3830 km, 34.3° (Epoch: 13 October)

Date Brightness Start Highest point End Pass type
(mag) Time Alt. Az. Time Alt. Az. Time Alt. Az.
14 Oct 12.3 02:55:00 10° SSW 03:03:37 32° SE 03:08:27 27° ESE visible
14 Oct 12.3 05:12:40 10° WSW 05:21:09 49° SSW 05:21:09 49° SSW visible
14 Oct 13.6 07:33:09 10° W 08:07:59 19° ESE 08:12:07 10° ESE visible
14 Oct 13.3 10:20:46 35° S 10:20:46 35° S 10:34:20 10° SSE visible
14 Oct 13.6 12:33:33 15° WSW 12:37:01 16° SW 12:47:40 10° SSW visible
15 Oct 12.1 03:15:01 10° SSW 03:24:05 39° SSE 03:28:08 33° ESE visible
15 Oct 12.4 05:33:25 10° WSW 05:40:50 44° SW 05:40:50 44° SW visible
15 Oct 13.7 08:28:29 19° SE 08:28:29 19° SE 08:33:03 10° SE visible
15 Oct 13.4 10:41:15 30° SSW 10:41:15 30° SSW 10:53:57 10° SSE visible
16 Oct 12.0 03:35:17 10° SW 03:44:42 45° SSE 03:47:47 41° SE visible
16 Oct 12.6 05:54:14 10° WSW 06:00:29 38° WSW 06:00:29 38° WSW visible
16 Oct 13.8 08:48:55 20° SE 08:48:55 20° SE 08:53:45 10° SE visible
16 Oct 13.5 11:01:41 25° SSW 11:01:41 25° SSW 11:13:01 10° S visible
17 Oct 12.3 01:39:35 10° S 01:45:38 21° SE 01:54:24 10° E visible
17 Oct 11.9 03:55:44 10° SW 04:05:29 50° SSE 04:07:23 48° SE visible
17 Oct 12.8 06:15:08 10° W 06:20:04 31° WSW 06:20:04 31° WSW visible
17 Oct 13.8 09:09:18 19° SSE 09:09:18 19° SSE 09:14:09 10° SE visible
17 Oct 13.7 11:22:03 19° SSW 11:22:03 19° SSW 11:31:13 10° S visible
18 Oct 12.1 01:59:09 10° SSW 02:05:55 27° SE 02:14:16 14° E visible
18 Oct 11.9 04:16:20 10° WSW 04:26:23 54° SSE 04:26:58 54° SSE visible
18 Oct 13.0 06:36:05 10° W 06:39:39 24° WSW 06:39:39 24° WSW visible
18 Oct 13.8 09:29:35 18° SSE 09:29:35 18° SSE 09:34:11 10° SSE visible
18 Oct 13.8 11:42:21 14° SW 11:42:21 14° SW 11:47:51 10° SSW visible
19 Oct 11.9 02:19:07 10° SSW 02:26:21 34° SSE 02:33:49 20° E visible
19 Oct 11.9 04:37:03 10° WSW 04:46:30 56° S 04:46:30 56° S visible
19 Oct 13.3 06:57:07 10° W 07:37:04 - SE 06:59:12 18° W visible
19 Oct 13.9 09:49:49 16° S 09:49:49 16° S 09:53:45 10° SSE visible
20 Oct 11.8 02:39:22 10° SW 02:46:56 40° SSE 02:53:21 26° ESE visible
20 Oct 12.0 04:57:50 10° WSW 05:06:03 52° SSW 05:06:03 52° SSW visible
20 Oct 13.5 07:18:12 10° W 07:57:13 - SE 07:18:44 12° W visible
20 Oct 13.9 10:09:58 14° S 10:09:58 14° S 10:12:40 10° S visible
21 Oct 11.7 02:59:48 10° SW 03:07:40 46° SSE 03:12:53 32° ESE visible
21 Oct 12.2 05:18:40 10° WSW 05:25:34 45° SW 05:25:34 45° SW visible
21 Oct13.708:17:16SE08:17:16SE07:38:15Wvisible
21 Oct 14.0 10:30:00 11° S 10:30:00 11° S 10:30:39 10° S visible
22 Oct 11.6 03:20:22 10° WSW 03:28:29 50° SSE 03:32:25 40° SE visible
22 Oct 12.5 05:39:34 10° W 05:45:05 36° WSW 05:45:05 36° WSW visible
22 Oct13.908:37:15SSE08:37:15SSE07:57:46Wvisible
23 Oct 11.8 01:23:28 10° SSW 01:29:11 29° SSE 01:38:12 10° E visible
23 Oct 11.6 03:41:02 10° WSW 03:49:25 52° S 03:51:56 47° SE visible
23 Oct 12.7 06:00:32 10° W 06:04:38 27° WSW 06:04:38 27° WSW visible
